User: anonymous   Login
Location: Columbia
(38.9520°N, 92.3340°W)
Time: 13:19:18
(UTC-05:00)
Language:

CZ-4B R/B - Orbit

View from above orbital plane
View from above orbital plane
View from above satellite
View from above satellite

Ground track
Ground track

The orbit data is extracted from the following two-line orbital elements,

1 29093U 06015B   16209.85353344  .00002710  00000-0  71133-4 0  9997
2 29093  97.4852 307.9358 0069791  43.0508 317.6166 15.37103925567663
Epoch (UTC): 27 July 2016 20:29:05
Eccentricity: 0.0069791
inclination: 97.4852°
perigee height: 407 km
apogee height: 502 km
right ascension of ascending node: 307.9358°
argument of perigee: 43.0508°
revolutions per day: 15.37103925
mean anomaly at epoch: 317.6166°
orbit number at epoch: 56766

The dashed part of the orbit path shows where the satellite is in the earth's shadow,  

DLR